Location: Aurent
(44.0438°N, 6.7157°E)
Time: 11:02:44
(UTC+00:00)

Daily predictions for brighter satellites

Satellite Brightness Start Highest point End
(mag) Time Altitude Azimuth Time Altitude Azimuth Time Altitude Azimuth
USA 267 3.4 16:15:17 10° NE 16:21:52 86° SE 16:28:25 10° SW
SJ 16-02 3.4 16:22:05 10° NW 16:26:03 34° WSW 16:29:58 10° SSW
Cosmos 1763 Rocket 3.5 16:21:23 10° S 16:26:22 65° ESE 16:31:26 10° NNE
CZ-4B R/B 2.8 16:23:27 10° SSE 16:27:30 69° ENE 16:31:22 10° N
USA 276 2.2 16:26:13 10° WNW 16:29:21 76° SSW 16:32:27 10° SE
Cosmos 1656 3.9 16:26:14 10° NNW 16:31:48 80° WSW 16:37:25 10° SSE
Cosmos 1933 3.8 16:28:45 10° SSE 16:32:33 40° E 16:36:21 10° NNE
Cosmos 841 Rocket 4.2 16:28:22 10° SSE 16:32:55 32° E 16:37:28 10° NE
Cosmos 1464 Rocket 4.4 16:28:07 10° SSW 16:34:28 73° W 16:40:52 10° N
USA 229 DEB 3.9 16:29:17 10° NW 16:36:40 74° NE 16:44:29 10° SE
USA 229 3.9 16:29:23 10° NW 16:36:46 74° NE 16:44:34 10° SE
Cosmos 1937 Rocket 3.8 16:33:00 10° N 16:38:08 47° ENE 16:43:15 10° SE
Cosmos 1500 Rocket 3.5 16:36:34 10° N 16:41:01 77° E 16:45:24 10° SSE
Cosmos 1666 4.2 16:38:55 10° NNE 16:41:09 15° ENE 16:43:23 10° ESE
Nadezhda 4 Rocket 4.2 16:36:34 10° N 16:42:55 85° W 16:49:15 10° S
SL-24 R/B - RUBIN 2 4.3 16:39:15 10° NNW 16:43:22 32° NE 16:47:17 10° ESE
Cosmos 2322 Rocket 4.0 16:42:58 10° NNE 16:44:28 11° NE 16:45:57 10° NE
FengYun 1-2 T 4.2 16:39:30 10° SSE 16:45:05 81° ENE 16:50:40 10° NNW
Cosmos 990 Rocket 4.1 16:39:54 10° NNW 16:45:07 84° WSW 16:50:16 10° SSE
Cosmos 1697 Rocket 2.6 16:41:51 10° NNW 16:47:29 71° ENE 16:53:04 10° SSE
NOAA 6 4.0 16:43:25 10° SSE 16:48:31 70° ENE 16:53:37 10° N
Cosmos 372 Rocket 4.5 16:44:26 10° N 16:49:20 38° ENE 16:54:11 10° SE
Sich 1 3.3 16:46:36 10° N 16:50:44 43° ENE 16:54:51 10° SSE
Cosmos 2221 3.9 16:46:50 10° SSW 16:50:50 40° WNW 16:54:55 10° N
Cosmos 1980 Rocket 2.6 16:46:21 10° NNW 16:51:43 41° ENE 16:57:01 10° SE
Cosmos 1805 Rocket 3.5 16:48:27 10° N 16:52:46 59° E 16:57:02 10° SSE
Cosmos 2369 3.8 16:48:05 10° NNW 16:53:43 53° ENE 16:59:17 10° SE
USA 234 3.2 16:48:17 10° ESE 16:54:47 73° NE 17:01:19 10° NW
CZ-4C R/B 3.3 16:51:15 10° NNW 16:58:00 44° NE 17:05:52 10° ESE
Cosmos 1092 Rocket 4.0 16:52:28 10° N 16:58:51 77° E 17:05:10 10° SSE
Cosmos 1812 3.5 16:56:13 10° SSE 16:59:35 30° E 17:02:43 11° NNE
Cosmos 2084 4.0 16:55:23 10° NW 16:59:40 63° SW 17:04:06 10° SSE
NOSS 3-1 (A) 4.3 16:52:40 10° NW 17:00:18 80° SW 17:09:10 10° SSE
Cosmos 1428 Rocket 4.4 16:55:26 10° N 17:01:35 70° E 17:07:43 10° SSE
SL-16 R/B 3.6 16:59:00 10° N 17:02:45 18° NE 17:04:16 16° ENE
ISS -3.1 16:59:52 10° NW 17:03:05 39° NNE 17:04:58 20° E
deb Chang Zheng 4 4.3 17:00:16 10° SE 17:04:03 31° ENE 17:07:51 10° N
Meteor 1-25 Rocket 4.3 16:58:55 10° NNW 17:04:31 84° W 17:10:08 10° S
SMAP 3.2 16:59:52 10° SSE 17:04:31 82° WSW 17:09:12 10° NNW
Cosmos 2082 Rocket 2.4 16:59:51 10° S 17:05:22 54° ESE 17:10:43 11° NE
NOSS 2-2 (D) 4.4 17:00:35 10° NNW 17:05:44 58° NE 17:12:55 10° SE
Cosmos 1939 Rocket 3.3 17:01:42 10° S 17:05:48 69° W 17:09:53 10° NNW
MOS 1-B Rocket 4.3 17:00:06 10° NNE 17:05:55 52° E 17:12:30 10° S
NOSS 2-2 (E) 4.4 17:00:43 10° NNW 17:06:06 70° NE 17:13:40 10° SE
CORIOLIS 4.2 17:02:03 10° SSE 17:07:27 90° NNE 17:12:55 10° NNW
Cosmos 858 Rocket 4.4 17:05:21 10° NNW 17:10:40 81° ENE 17:15:56 10° SSE
Cosmos 44 Rocket 4.4 17:08:42 10° NNW 17:12:47 25° NE 17:14:23 21° ENE
CZ-4B DEB 4.2 17:08:18 10° SSE 17:13:49 88° ENE 17:19:21 10° NNW
Cosmos 2278 3.9 17:12:15 10° NNW 17:17:46 47° ENE 17:23:14 10° SE
Cosmos 1602 4.1 17:14:05 10° NNW 17:17:56 67° W 17:21:46 10° S
AQUARIUS 4.5 17:14:00 10° S 17:18:28 69° WSW 17:22:57 10° NNW
USA 307 4.5 17:16:49 10° NW 17:20:09 21° N 17:21:38 18° NNE
Cosmos 1627 Rocket 4.5 17:14:06 10° N 17:20:18 86° W 17:26:25 10° S
Cosmos 540 Rocket 3.6 17:15:16 10° SSW 17:20:22 74° WNW 17:25:29 10° NNE
ARGOS 3.3 17:18:51 10° SE 17:24:01 48° ENE 17:29:11 10° N
Cosmos 1570 Rocket 4.2 17:20:01 10° S 17:25:02 50° ESE 17:28:35 19° NE
Cosmos 2279 Rocket 4.0 17:19:01 10° S 17:25:06 60° E 17:31:12 10° NNE
COSMOS 2406 3.6 17:20:25 10° SW 17:26:08 65° WNW 17:31:51 10° NNE
COSMO-SKYMED 1 2.7 17:23:24 14° NNE 17:26:55 51° E 17:31:08 10° S
Cosmos 1833 Rocket 3.5 17:22:04 10° SW 17:27:31 49° WNW 17:32:59 10° NNE
Cosmos 1782 3.1 17:24:40 10° SSW 17:28:38 67° W 17:32:37 10° N
Cosmos 1814 Rocket 4.0 17:24:42 10° S 17:29:52 64° ESE 17:33:44 18° NNE
ATLAS 5 CENTAUR R/B 3.0 17:26:34 10° NW 17:32:33 28° NNE 17:33:08 27° NE
Cosmos 921 Rocket 3.9 17:29:33 10° SSE 17:32:43 28° ESE 17:32:43 28° ESE
CZ-2C R/B 3.6 17:32:36 10° S 17:34:12 12° SSE 17:35:26 11° SE
Cosmos 1633 Rocket 3.0 17:31:36 10° N 17:35:56 60° E 17:40:16 10° SSE
Cosmos 1818 4.0 17:31:52 10° NNW 17:37:01 40° NE 17:38:50 31° E
GEOS 3 Rocket 4.3 17:37:58 31° ENE 17:39:13 35° NE 17:43:53 10° NNW
CZ-2D R/B 3.8 17:35:31 10° S 17:39:17 59° W 17:43:05 10° NNW
Meteor 2-6 Rocket 4.2 17:34:23 10° S 17:40:02 58° E 17:45:14 12° NNE
SJ-11-01 4.2 17:37:16 10° SSE 17:41:58 68° ENE 17:46:42 10° N
Cosmos 1634 Rocket 4.4 17:35:50 10° SSW 17:42:06 66° W 17:48:26 10° N
USA 308 4.4 17:39:29 10° NW 17:42:53 22° N 17:43:13 22° NNE
COSMOS 2455 3.1 17:37:29 10° SW 17:43:30 69° NW 17:48:14 17° NNE
CZ-4B R/B 3.1 17:40:45 10° SSE 17:46:11 90° NE 17:51:34 10° NNW
CZ-2C R/B 2.4 17:41:09 10° NNE 17:46:22 81° ESE 17:51:32 10° S
Cosmos 1500 4.3 17:43:49 10° NNW 17:47:25 44° W 17:50:57 10° SSW
Cosmos 1151 Rocket 3.0 17:43:18 10° S 17:47:37 82° W 17:51:27 13° N
Okean O Rocket 1.5 17:45:51 10° SSE 17:50:17 80° ENE 17:54:46 10° N
Lacrosse 5 rocket 2.3 17:47:42 10° NNW 17:50:36 30° N 17:50:36 30° N
Meteor 2-15 4.3 17:51:23 10° S 17:57:26 66° E 18:03:28 10° NNE
Cosmos 2208 Rocket 3.9 17:53:39 10° SSW 17:59:01 80° ESE 18:01:39 32° NNE
CZ-4 R/B 4.4 17:55:31 10° SSE 17:59:39 85° W 18:03:48 10° NNW
Cosmos 1666 Rocket 4.1 17:57:22 10° NNW 18:01:45 58° W 18:06:03 10° S
Meteor 1-10 Rocket 4.2 17:56:10 10° S 18:01:54 65° E 18:04:52 29° NNE
H-2A R/B 3.0 17:57:27 10° S 18:02:27 48° W 18:07:21 10° NNW
Meteor 1-11 Rocket 3.8 17:58:29 10° N 18:03:58 52° ENE 18:09:33 10° SSE
USA 267 4.1 18:01:03 23° NNE 18:04:31 40° NNW 18:10:30 10° W
Cosmos 1470 Rocket 3.4 18:00:34 10° N 18:05:02 73° E 18:09:30 10° SSE
Cosmos 1328 Rocket 3.7 18:00:43 10° SSW 18:05:09 76° W 18:07:30 27° N
Cosmos 2150 Rocket 4.1 18:00:13 10° NNW 18:04:48 50° NE 18:04:48 50° NE
Cosmos 1655 Rocket 3.9 18:00:49 10° N 18:07:14 71° E 18:13:33 10° SSE
Landsat 5 3.4 18:08:41 58° N 18:09:25 77° WNW 18:13:23 10° SSW
Cosmos 2360 Rocket 3.9 18:05:09 10° N 18:07:10 18° NNE 18:07:10 18° NNE
USA 305 4.5 18:06:08 10° NW 18:08:46 24° N 18:08:46 24° N
SKYMED 2 4.4 18:12:01 18° N 18:14:58 48° WNW 18:19:09 10° SW
Feng Yun 1-1 Rocket 4.3 18:09:40 10° SSE 18:15:36 85° ENE 18:21:30 10° NNW
Cosmos 1666 4.1 18:13:24 10° NNW 18:16:51 36° W 18:20:15 10° SSW
ATLAS CENTAUR R/B 3.6 18:12:40 10° W 18:19:26 30° NW 18:20:43 26° N
Cosmos 1125 Rocket 3.8 18:18:10 10° NNW 18:22:14 51° N 18:22:14 51° N
Cosmos 2322 Rocket 3.1 18:24:22 10° NNW 18:27:49 34° N 18:27:49 34° N
SL-08 RB Rocket 4.4 18:29:04 10° S 18:33:36 54° W 18:38:09 10° NNW
Cosmos 1980 Rocket 3.9 18:30:38 10° NW 18:35:34 31° WSW 18:40:26 10° SSW
ATLAS 2AS CENTAUR R/B 4.5 18:32:41 10° NNW 18:37:27 18° NNE 18:37:27 18° NNE
ISS -1.0 18:36:43 10° WNW 18:37:58 19° W 18:37:58 19° W
CZ-4C R/B 3.6 18:39:39 10° NW 18:46:57 57° WSW 18:55:16 10° SSE
SL-16 R/B 2.7 18:41:57 10° NNW 18:46:11 52° NNW 18:46:11 52° NNW
Cosmos 2082 Rocket 4.0 18:45:02 10° WSW 18:49:46 26° NW 18:52:35 18° N
Cosmos 44 Rocket 4.5 18:49:52 10° NW 18:53:10 39° WNW 18:53:10 39° WNW
